DK4DAX-2 Weather Reports


time (UTC)temp
C
wind
direction
speed
KPH
gust
KPH
rain 1hr
cm
rain 24hr
cm
rain mn
cm
humidity
%
barometer
mb
20260506144502 11 123 1.6 3.2 0.00 0.03 0.03 89 1000.5
20260506143002 12 333 0.0 6.4 0.00 0.03 0.03 88 1000.5
20260506141503 12 121 0.0 3.2 0.00 0.03 0.03 88 1000.3
20260506140002 12 27 0.0 3.2 0.00 0.03 0.03 88 1000.2
20260506134502 12 126 0.0 6.4 0.00 0.03 0.03 88 1000.2
20260506133003 12 124 0.0 3.2 0.00 0.03 0.03 89 1000.2
20260506131503 12 112 0.0 3.2 0.00 0.03 0.03 87 1000.3
20260506130003 12 270 0.0 3.2 0.00 0.03 0.03 87 1000.1
20260506124503 12 155 0.0 3.2 0.00 0.03 0.03 88 999.6
20260506123003 12 145 3.2 3.2 0.00 0.03 0.03 88 999.7
20260506121502 13 0 0.0 0.0 0.00 0.03 0.03 88 999.8
20260506120003 12 83 0.0 3.2 0.00 0.03 0.03 88 999.8
20260506114502 12 140 0.0 4.8 0.00 0.03 0.03 86 999.4
20260506113002 13 183 1.6 4.8 0.00 0.03 0.03 86 999.3
20260506111502 13 123 0.0 3.2 0.00 0.03 0.03 89 999.2
20260506110003 13 237 0.0 4.8 0.00 0.03 0.03 91 999.0
20260506104502 13 172 0.0 3.2 0.00 0.03 0.03 92 999.1
20260506103003 12 200 0.0 3.2 0.00 0.03 0.03 91 999.1
20260506101503 13 139 0.0 3.2 0.00 0.03 0.03 92 998.9
20260506100002 13 205 0.0 3.2 0.00 0.03 0.03 93 998.7
20260506094503 13 225 0.0 1.6 0.00 0.03 0.03 94 998.8
20260506093003 13 90 0.0 1.6 0.00 0.03 0.03 94 998.6
20260506091502 12 314 0.0 1.6 0.00 0.03 0.03 95 998.4
20260506090003 12 225 0.0 3.2 0.00 0.03 0.03 96 998.6
20260506084502 12 0 0.0 0.0 0.00 0.03 0.03 97 998.4
20260506083002 12 135 0.0 1.6 0.00 0.03 0.03 97 998.5
20260506081502 12 181 0.0 3.2 0.00 0.03 0.03 97 998.0
20260506073003 12 0 0.0 0.0 0.00 0.03 0.03 97 997.8
20260506071503 12 0 0.0 0.0 0.00 0.03 0.03 97 998.1
20260506061502 12 0 0.0 0.0 0.00 0.03 0.03 97 997.7
20260506044502 11 270 0.0 3.2 0.00 0.03 0.03 98 997.6
20260506043002 11 0 0.0 0.0 0.00 0.03 0.03 98 997.7
20260506041503 11 0 0.0 0.0 0.00 0.03 0.03 98 998.0
20260506040003 11 0 0.0 0.0 0.00 0.03 0.03 98 997.4
20260506034503 11 122 0.0 1.6 0.00 0.03 0.03 98 997.6
20260506033003 11 0 0.0 0.0 0.00 0.03 0.03 98 997.6
20260506031502 11 0 0.0 0.0 0.00 0.03 0.03 98 997.8
20260506030003 11 0 0.0 0.0 0.03 0.03 0.03 98 998.0
20260506024503 11 135 0.0 1.6 0.03 0.03 0.03 98 998.0
20260506023003 12 0 0.0 0.0 0.03 0.03 0.03 97 998.1
20260506021503 12 0 0.0 0.0 0.03 0.03 0.03 97 998.4
20260506020002 12 0 0.0 0.0 0.00 0.00 0.00 97 998.2
20260506014503 12 0 0.0 0.0 0.00 0.00 0.00 97 998.4
20260506013003 12 181 0.0 1.6 0.00 0.00 0.00 97 998.5
20260506011502 12 182 0.0 4.8 0.00 0.00 0.00 97 998.5
20260506010003 12 154 0.0 3.2 0.00 0.00 0.00 97 998.6
20260506004503 12 129 0.0 3.2 0.00 0.00 0.00 97 998.7
20260506003003 12 173 0.0 3.2 0.00 0.00 0.00 97 998.9
20260506001503 12 147 0.0 1.6 0.00 0.00 0.00 97 999.1
20260506000003 12 191 1.6 3.2 0.00 0.00 0.00 97 999.1
20260505234503 12 143 0.0 3.2 0.00 0.00 0.00 97 999.2
20260505233003 12 147 0.0 3.2 0.00 0.00 0.00 97 999.3
20260505231503 12 166 0.0 1.6 0.00 0.00 0.00 97 999.2
20260505230003 12 138 0.0 1.6 0.00 0.00 0.00 97 999.3
20260505224503 12 167 0.0 3.2 0.00 0.00 0.00 97 999.5
20260505223003 12 144 0.0 3.2 0.00 0.00 0.00 97 999.5
20260505221502 12 159 0.0 1.6 0.00 0.00 0.00 97 999.3
20260505220003 12 157 0.0 1.6 0.00 0.00 0.00 97 999.6
20260505214503 12 133 0.0 3.2 0.00 0.00 0.00 97 999.7
20260505213003 12 138 0.0 3.2 0.00 0.00 0.00 97 999.7
20260505211502 12 156 0.0 1.6 0.00 0.00 0.00 96 999.9
20260505210003 12 189 0.0 3.2 0.00 0.00 0.00 96 999.8
20260505204503 12 161 0.0 1.6 0.00 0.00 0.00 96 1000.0
20260505203002 12 170 0.0 3.2 0.00 0.00 0.00 95 999.8
20260505201503 13 178 0.0 3.2 0.00 0.00 0.00 94 999.9
20260505200003 13 143 0.0 3.2 0.00 0.00 0.00 94 999.7
20260505194502 13 146 0.0 3.2 0.00 0.00 0.00 93 999.7
20260505193003 13 234 0.0 3.2 0.00 0.00 0.00 93 999.7
20260505191503 13 136 0.0 3.2 0.00 0.00 0.00 91 999.5
20260505190003 14 149 0.0 3.2 0.00 0.00 0.00 91 999.7
20260505184503 14 135 0.0 3.2 0.00 0.00 0.00 90 999.5
20260505183003 14 137 1.6 3.2 0.00 0.00 0.00 89 999.5
20260505181502 14 246 0.0 3.2 0.00 0.00 0.00 87 999.7
20260505180003 15 225 0.0 1.6 0.00 0.00 0.00 86 999.6
20260505174503 15 218 0.0 3.2 0.00 0.00 0.00 85 999.5
20260505173002 15 133 0.0 3.2 0.00 0.00 0.00 83 999.7
20260505171503 15 171 1.6 3.2 0.00 0.00 0.00 81 999.7
20260505170003 15 178 0.0 4.8 0.00 0.00 0.00 80 999.5
20260505164502 16 176 0.0 4.8 0.00 0.00 0.00 80 999.6
20260505163003 16 183 0.0 3.2 0.00 0.00 0.00 79 999.4
20260505161503 16 136 0.0 4.8 0.00 0.00 0.00 76 999.9
20260505153002 16 280 1.6 6.4 0.00 0.00 0.00 74 999.8
20260505151503 17 148 0.0 4.8 0.00 0.00 0.00 72 999.8